Location: Gebenbach
(49.5378°N, 11.8735°E)
Time: 03:24:10
(UTC+00:00)

Cosmos 1992 Rocket - Pass Details

Date: 29 October 2020
Orbit: 759 x 765 km, 74.0° (Epoch: 24 November)

Event Time Altitude Azimuth Distance (km) Brightness Sun altitude
Rises 17:32:34 0° 191° (S) 3,206 7.4 -16.3°
Reaches altitude 10° 17:34:56 10° 188° (S) 2,285 6.6 -16.7°
Maximum altitude 17:40:03 63° 109° (ESE) 850 3.9 -17.5°
Drops below altitude 10° 17:45:12 10° 29° (NNE) 2,301 6.2 -18.4°
Enters shadow 17:45:23 - 29° (NNE) 2,371 6.3 -18.4°
